Location: Le Rocchette
(44.3500°N, 7.8333°E)
Time: 14:06:18
(UTC+00:00)

PSLV R/B - Pass Details

Date: 25 February 2020
Orbit: 505 x 578 km, 97.8° (Epoch: 06 April)

Event Time Altitude Azimuth Distance (km) Brightness Sun altitude
Rises 04:29:06 0° 17° (NNE) 2,648 7.6 -19.5°
Reaches altitude 10° 04:31:13 10° 21° (NNE) 1,766 6.7 -19.1°
Maximum altitude 04:34:58 56° 101° (E) 634 4.4 -18.4°
Drops below altitude 10° 04:38:46 10° 180° (S) 1,791 6.4 -17.7°
Sets 04:40:55 0° 185° (S) 2,690 7.3 -17.4°
